Location: East Fork Observatory
(32.9757°N, 94.4485°W)
Time: 21:25:50
(UTC-05:00)

N. Korean satellite - Visible Passes

Search period start: 16 October 2019 00:00
Search period end: 26 October 2019 00:00
Orbit: 455 x 508 km, 97.2° (Epoch: 16 October)

Date Brightness Start Highest point End Pass type
(mag) Time Alt. Az. Time Alt. Az. Time Alt. Az.
16 Oct 10.0 06:18:32 10° NE 06:20:49 16° E 06:23:07 10° SE visible
17 Oct 10.3 19:32:06 10° WSW 19:33:28 12° W 19:34:51 10° WNW visible
18 Oct 9.1 19:05:07 10° SSW 19:08:03 27° W 19:11:01 10° NW visible
19 Oct 9.1 06:35:15 10° NE 06:38:24 27° E 06:41:34 10° SSE visible
20 Oct 10.3 06:11:17 10° ENE 06:13:00 13° E 06:14:43 10° ESE visible
21 Oct 10.0 19:23:30 10° SW 19:25:35 15° W 19:27:41 10° WNW visible
22 Oct 7.7 06:52:21 10° NNE 06:55:55 50° E 06:59:30 10° S visible
22 Oct 8.5 18:57:03 10° SSW 19:00:11 35° W 19:03:21 10° NNW visible
23 Oct 9.5 06:27:39 10° NE 06:30:34 22° E 06:33:30 10° SSE visible
24 Oct 10.6 06:04:44 10° E 06:05:08 10° E 06:05:32 10° E visible
25 Oct 9.7 19:15:08 10° SW 19:17:40 20° W 19:20:15 10° NW visible
